Regional Weather Roundup
Issued by NWS Charleston, WV

Home | Current Version | Previous Version | Graphics & Text | Print | Product List | Glossary On
Versions: 1 2 3 4 5 6 7 8 9 10 11 12 13 14 15 16 17 18 19 20 21 22 23 24 25 26 27 28 29 30 31 32 33 34 35 36 37 38 39 40 41 42 43 44 45 46 47 48 49 50
345
ASUS41 KRLX 182010
RWRRLX
West Virginia Regional Weather Roundup
National Weather Service Charleston WV
400 PM EDT FRI AUG 18 2017

Note: "fair" indicates few or no clouds below 12,000 feet with no
significant weather and/or obstructions to visibility.

WVZ003-182100-
Northern Panhandle of West Virginia

CITY           SKY/WX    TMP DP  RH WIND       PRES   REMARKS
WHEELING       MOSUNNY   83  61  47 W16G24    29.85R
$$

WVZ009-182100-
Northwest West Virginia

CITY           SKY/WX    TMP DP  RH WIND       PRES   REMARKS
PARKERSBURG    MOSUNNY   85  69  58 W9G21     29.89S
$$

WVZ006-182100-
Western West Virginia

CITY           SKY/WX    TMP DP  RH WIND       PRES   REMARKS
HUNTINGTON     PTSUNNY   86  68  54 W8        29.89S
$$

WVZ015-182100-
West Central West Virginia

CITY           SKY/WX    TMP DP  RH WIND       PRES   REMARKS
CHARLESTON     MOSUNNY   87  68  52 W5G17     29.88F
$$

WVZ022-031-182100-
North Central West Virginia

CITY           SKY/WX    TMP DP  RH WIND       PRES   REMARKS
CLARKSBURG     MOSUNNY   86  69  56 W6        29.86F
MORGANTOWN     MOSUNNY   85  68  56 VRB6      29.86F
$$

WVZ025-035-042-045-182100-
Southern West Virginia

CITY           SKY/WX    TMP DP  RH WIND       PRES   REMARKS
BECKLEY        PTSUNNY   79  67  66 NW9       29.98F
LOGAN          PTSUNNY   79  72  78 VRB7      29.94F
BLUEFIELD      CLOUDY    71  67  87 W10       30.02F
LEWISBURG      MOSUNNY   77  71  81 W7        29.96F
$$

WVZ047-182100-
Northern Mountains of West Virginia

CITY           SKY/WX    TMP DP  RH WIND       PRES   REMARKS
ELKINS         LGT RAIN  76  69  79 W3        29.94S
$$

WVZ052-182100-
Eastern Panhandle of West Virginia

CITY           SKY/WX    TMP DP  RH WIND       PRES   REMARKS
MARTINSBURG    CLOUDY    78  73  84 SW6       29.79F
PETERSBURG     CLOUDY    82  76  82 SE5       29.85F
$$




USA.gov is the U.S. government's official web portal to all federal, state and local government web resources and services.